Location: München
(48.1351°N, 11.5820°E)
Time: 05:34:39
(UTC+02:00)

ISS - Pass Details

Date: 25 May 2021
Orbit: 417 x 422 km, 51.6° (Epoch: 13 June)

Event Time Altitude Azimuth Distance (km) Brightness Sun altitude
Rises 22:11:40 0° 289° (WNW) 2,366 1.2 -10.0°
Reaches altitude 10° 22:13:48 10° 294° (WNW) 1,501 0.2 -10.3°
Maximum altitude 22:17:07 55° 13° (NNE) 510 -3.1 -10.6°
Drops below altitude 10° 22:20:26 10° 93° (E) 1,501 -1.3 -11.0°
Enters shadow 22:20:39 - 93° (E) 1,586 -1.2 -11.0°
